SOMP 2

Last updated on Thu Apr 05 2018 01:15:04 GMT+0100 (British Summer Time)

1 42701U 98067LJ 18094.35496906 .00017550 00000-0 16918-3 0 9994 2 42701 51.6378 12.1859 0003072 344.8976 15.1928 15.66602023 50401

Satellite not in orbit